Location: Bednik
(45.3500°N, 16.3833°E)
Time: 00:05:43
(UTC+00:00)

Nimbus 7 Rocket - Pass Details

Date: 08 August 2020
Orbit: 922 x 965 km, 99.4° (Epoch: 23 September)

Event Time Altitude Azimuth Distance (km) Brightness Sun altitude
Rises 22:23:42 0° 14° (NNE) 3,579 8.5 -28.3°
Reaches altitude 10° 22:26:08 10° 14° (NNE) 2,633 7.6 -28.4°
Maximum altitude 22:32:01 85° 288° (WNW) 937 4.3 -28.5°
Enters shadow 22:32:14 82° 238° (WSW) 941 4.2 -28.5°
